Change the Weather History Date:

Tuesday, June 11, 2013

  Actual Average Record
Temperature  
Mean Temperature 66 °F -  
Max Temperature 80 °F 79 °F 97 °F (1956)
Min Temperature 53 °F 55 °F 40 °F (1958)
Cooling Degree Days 2    
Growing Degree Days 16 (Base 50)    
Moisture  
Dew Point 64 °F    
Average Humidity 86    
Maximum Humidity 100    
Minimum Humidity 61    
Precipitation  
Precipitation 0.00 in - - ()
Sea Level Pressure  
Sea Level Pressure 29.87 in    
Wind  
Wind Speed 2 mph (NE)    
Max Wind Speed 10 mph    
Max Gust Speed -    
Visibility 8 miles    
Events Fog , Rain , Thunderstorm    
Averages and records for this station are not official NWS values.
T = Trace of Precipitation, MM = Missing Value Source: NWS Daily Summary

Daily Weather History Graph

Daily Weather History Graph

Search for Another Location

Airport or City:

Trip Planner

Search our weather history database for the weather conditions in past years. The results will help you decide how hot, cold, wet, or windy it might be!

Date:

Astronomy

Jun. 11, 2013 Rise Set
Actual Time 5:28 AM CDT 8:57 PM CDT
Civil Twilight 4:52 AM CDT 9:33 PM CDT
Nautical Twilight 4:04 AM CDT 10:21 PM CDT
Astronomical Twilight 3:03 AM CDT 11:23 PM CDT
Moon 8:17 AM CDT (6/11) 10:54 PM CDT (6/11)
Length of Visible Light 16h 41m
Length of Day
15h 28m
Waxing Crescent, 8% of the Moon is Illuminated
Jun 11
Waxing Crescent
Jun 16
First Quarter
Jun 23
Full
Jun 29
Last Quarter
Jul 8
New

Hourly Weather History & Observations

Time (CDT) Temp. Heat Index Dew Point Humidity Pressure Visibility Wind Dir Wind Speed Gust Speed Precip Events Conditions
12:14 AM 59.0 °F - 59.0 °F 100% 29.87 in 4.0 mi Calm Calm - N/A   Clear
12:34 AM 57.2 °F - 57.2 °F 100% 29.88 in 4.0 mi Calm Calm - N/A   Clear
12:54 AM 57.2 °F - 57.2 °F 100% 29.88 in 0.8 mi Calm Calm - N/A   Mist
1:14 AM 55.4 °F - 55.4 °F 100% 29.87 in 0.2 mi Calm Calm - N/A Fog Fog
1:34 AM 59.0 °F - 59.0 °F 100% 29.87 in 5.0 mi South 4.6 mph - N/A   Clear
1:54 AM 57.2 °F - 57.2 °F 100% 29.86 in 5.0 mi SSE 3.5 mph - N/A   Clear
2:14 AM 59.0 °F - 59.0 °F 100% 29.86 in 7.0 mi South 3.5 mph - N/A   Clear
2:34 AM 59.0 °F - 57.2 °F 94% 29.86 in 7.0 mi Calm Calm - N/A   Clear
2:54 AM 57.2 °F - 57.2 °F 100% 29.85 in 5.0 mi Calm Calm - N/A   Clear
3:14 AM 55.4 °F - 55.4 °F 100% 29.85 in 1.0 mi Calm Calm - N/A   Mist
3:34 AM 55.4 °F - 55.4 °F 100% 29.85 in 0.8 mi Calm Calm - N/A   Mist
3:54 AM 55.4 °F - 55.4 °F 100% 29.86 in 0.8 mi Calm Calm - N/A   Mist
4:14 AM 55.4 °F - 55.4 °F 100% 29.86 in 1.8 mi Calm Calm - N/A   Mist
4:34 AM 55.4 °F - 55.4 °F 100% 29.86 in 0.8 mi Calm Calm - N/A   Mist
4:54 AM 53.6 °F - 53.6 °F 100% 29.87 in 0.5 mi Calm Calm - N/A Fog Fog
5:14 AM 55.4 °F - 55.4 °F 100% 29.87 in 2.0 mi Calm Calm - N/A   Clear
5:34 AM 55.4 °F - 55.4 °F 100% 29.87 in 1.2 mi Calm Calm - N/A   Mist
5:54 AM 55.4 °F - 55.4 °F 100% 29.89 in 1.8 mi Calm Calm - N/A   Mist
6:14 AM 55.4 °F - 55.4 °F 100% 29.89 in 1.5 mi Calm Calm - N/A   Mist
6:34 AM 57.2 °F - 57.2 °F 100% 29.89 in 1.2 mi Calm Calm - N/A   Mist
6:54 AM 59.0 °F - 59.0 °F 100% 29.89 in 2.0 mi Calm Calm - N/A   Clear
7:14 AM 60.8 °F - 60.8 °F 100% 29.90 in 4.0 mi Calm Calm - N/A   Clear
7:34 AM 62.6 °F - 60.8 °F 94% 29.89 in 7.0 mi Calm Calm - N/A   Clear
7:54 AM 64.4 °F - 62.6 °F 94% 29.88 in 7.0 mi Calm Calm - N/A   Clear
8:14 AM 64.4 °F - 62.6 °F 94% 29.89 in 7.0 mi Calm Calm - N/A   Clear
8:34 AM 66.2 °F - 64.4 °F 94% 29.90 in 10.0 mi Calm Calm - N/A   Clear
8:54 AM 68.0 °F - 64.4 °F 88% 29.91 in 10.0 mi Calm Calm - N/A   Clear
9:14 AM 68.0 °F - 64.4 °F 88% 29.89 in 10.0 mi Calm Calm - N/A   Clear
9:34 AM 68.0 °F - 66.2 °F 94% 29.83 in 10.0 mi SE 9.2 mph - N/A Rain Light Rain
9:54 AM 71.6 °F - 66.2 °F 83% 29.89 in 10.0 mi SSW 6.9 mph - N/A   Clear
10:14 AM 71.6 °F - 66.2 °F 83% 29.90 in 10.0 mi West 4.6 mph - N/A   Clear
10:34 AM 71.6 °F - 66.2 °F 83% 29.90 in 10.0 mi Calm Calm - N/A   Clear
10:54 AM 71.6 °F - 66.2 °F 83% 29.89 in 10.0 mi SW 4.6 mph - N/A   Clear
11:14 AM 73.4 °F - 66.2 °F 78% 29.87 in 10.0 mi South 4.6 mph - N/A   Clear
11:34 AM 73.4 °F - 66.2 °F 78% 29.88 in 10.0 mi Calm Calm - N/A   Clear
11:54 AM 73.4 °F - 66.2 °F 78% 29.89 in 10.0 mi Calm Calm - N/A   Clear
12:14 PM 75.2 °F - 66.2 °F 73% 29.89 in 10.0 mi WNW 3.5 mph - N/A Rain Light Rain
12:34 PM 75.2 °F - 68.0 °F 78% 29.85 in 10.0 mi SE 4.6 mph - N/A   Scattered Clouds
12:54 PM 75.2 °F - 66.2 °F 73% 29.82 in 10.0 mi SE 9.2 mph - N/A   Clear
1:14 PM 75.2 °F - 66.2 °F 73% 29.84 in 10.0 mi SSE 8.1 mph - N/A   Clear
1:34 PM 75.2 °F - 66.2 °F 73% 29.87 in 10.0 mi Calm Calm - N/A   Clear
1:54 PM 77.0 °F - 66.2 °F 69% 29.87 in 10.0 mi Calm Calm - N/A   Clear
2:14 PM 77.0 °F - 66.2 °F 69% 29.89 in 10.0 mi NW 4.6 mph - N/A   Scattered Clouds
2:34 PM 77.0 °F - 68.0 °F 74% 29.87 in 10.0 mi Calm Calm - N/A   Scattered Clouds
2:54 PM 77.0 °F - 68.0 °F 74% 29.86 in 10.0 mi Calm Calm - N/A   Clear
3:14 PM 78.8 °F - 66.2 °F 65% 29.84 in 10.0 mi East 3.5 mph - N/A   Clear
3:34 PM 80.6 °F 83.2 °F 68.0 °F 65% 29.83 in 10.0 mi Calm Calm - N/A   Clear
3:54 PM 80.6 °F 83.2 °F 68.0 °F 65% 29.82 in 10.0 mi SE 6.9 mph - N/A   Clear
4:14 PM 80.6 °F 83.2 °F 68.0 °F 65% 29.82 in 10.0 mi East 5.8 mph - N/A   Clear
4:34 PM 80.6 °F 82.7 °F 66.2 °F 61% 29.84 in 10.0 mi Calm Calm - N/A   Clear
4:53 PM 80.6 °F 82.7 °F 66.2 °F 61% 29.87 in 10.0 mi NNW 6.9 mph - N/A   Clear
5:14 PM 78.8 °F - 69.8 °F 74% 29.87 in 10.0 mi NNW 8.1 mph - N/A   Clear
5:34 PM 78.8 °F - 69.8 °F 74% 29.87 in 10.0 mi North 3.5 mph - N/A   Clear
5:54 PM 78.8 °F - 69.8 °F 74% 29.85 in 10.0 mi ENE 3.5 mph - N/A   Clear
6:14 PM 78.8 °F - 69.8 °F 74% 29.85 in 10.0 mi Calm Calm - N/A   Clear
6:33 PM 78.8 °F - 69.8 °F 74% 29.86 in 10.0 mi North 8.1 mph - N/A   Clear
6:54 PM 78.8 °F - 69.8 °F 74% 29.86 in 10.0 mi North 9.2 mph - N/A   Clear
7:14 PM 77.0 °F - 69.8 °F 78% 29.86 in 10.0 mi North 10.4 mph - N/A   Clear
7:34 PM 75.2 °F - 69.8 °F 83% 29.85 in 10.0 mi NNE 9.2 mph - N/A   Clear
7:54 PM 75.2 °F - 69.8 °F 83% 29.85 in 10.0 mi NNE 8.1 mph - N/A   Clear
8:14 PM 73.4 °F - 69.8 °F 88% 29.83 in 10.0 mi NNE 8.1 mph - N/A   Clear
8:34 PM 73.4 °F - 69.8 °F 88% 29.83 in 10.0 mi NE 5.8 mph - N/A   Clear
8:54 PM 71.6 °F - 68.0 °F 88% 29.85 in 10.0 mi NNE 4.6 mph - N/A   Clear
9:14 PM 71.6 °F - 66.2 °F 83% 29.86 in 10.0 mi NNE 4.6 mph - N/A   Clear
9:34 PM 71.6 °F - 66.2 °F 83% 29.86 in 10.0 mi NNE 4.6 mph - N/A   Clear
9:54 PM 71.6 °F - 66.2 °F 83% 29.86 in 10.0 mi NNE 6.9 mph - N/A Rain Light Rain
10:13 PM 69.8 °F - 66.2 °F 88% 29.87 in 10.0 mi North 5.8 mph - N/A Rain Light Rain
10:34 PM 69.8 °F - 66.2 °F 88% 29.88 in 10.0 mi North 3.5 mph - N/A   Clear
10:54 PM 68.0 °F - 66.2 °F 94% 29.88 in 10.0 mi Calm Calm - N/A   Clear
11:14 PM 66.2 °F - 66.2 °F 100% 29.88 in 10.0 mi ENE 3.5 mph - N/A Thunderstorm Clear
11:34 PM 66.2 °F - 66.2 °F 100% 29.88 in 7.0 mi Calm Calm - N/A   Clear
11:54 PM 66.2 °F - 66.2 °F 100% 29.89 in 7.0 mi NNE 4.6 mph - N/A   Clear